Home   Weather   Tangier   Past weeks

Flag for Morocco Past Weather in Tangier, Morocco — Yesterday and Last 2 Weeks

Now
75 °F

Clear.


Feels Like: 77 °F
Forecast: 72 / 82 °F
Wind: 10 mph from East

Location: Tanger Aerodrome

Current Time: Sep 26, 2016 at 9:49:53 AM

Latest Report: Sep 26, 2016 at 9:00 AM


Visibility: 5 mi

Pressure: 30.04 "Hg

Humidity: 69%

Dew Point: 64 °F

Location of TangierLocation

Past Weather in Tangier — Graph

°F

Tangier Temperature Yesterday

Maximum temperature yesterday: 82 °F (at 1:30 PM)
Minimum temperature yesterday: 68 °F (at 2:00 AM)
Average temperature yesterday: 74 °F

High & Low Weather Summary for the Past Weeks

 TemperatureHumidityPressure
High88 °F (Sep 11, 4:00 PM)94% (Sep 13, 4:30 PM)30.21 "Hg (Sep 13, 4:30 PM)
Low55 °F (Sep 15, 6:30 AM)30% (Sep 16, 4:30 PM)29.89 "Hg (Sep 11, 5:30 PM)
Average71 °F68%30.05 "Hg
* Reported Sep 11 8:00 AM — Sep 26 8:30 AM, Tangier, Weather by CustomWeather, © 2016

Note: Actual official high and low records may vary slightly from our data, if they occured in-between our weather recording intervals... More about our weather records

Advertising

Tangier Weather History for the Previous 24 Hours

Scroll right to see more
 ConditionsComfort  
Time TempWeatherWind HumidityBarometerVisibility
8:30 AM
Mon, Sep 26
73 °FClear.12 mph74%30.04 "Hg5 mi
8:00 AM72 °FBroken clouds.13 mph78%30.01 "Hg5 mi
7:30 AM72 °FBroken clouds.9 mph78%30.01 "Hg5 mi
7:00 AM70 °FBroken clouds.7 mph83%30.01 "Hg5 mi
6:30 AM70 °FScattered clouds.8 mph83%30.01 "Hg5 mi
6:00 AM68 °FPassing clouds.5 mph88%29.98 "Hg5 mi
5:30 AM68 °FPassing clouds.9 mph88%29.98 "Hg5 mi
5:00 AM70 °FPassing clouds.10 mph83%29.98 "Hg5 mi
4:30 AM70 °FPassing clouds.8 mph83%30.01 "Hg5 mi
4:00 AM68 °FPassing clouds.2 mph88%30.01 "Hg5 mi
3:30 AM70 °FPassing clouds.3 mph83%30.01 "Hg5 mi
3:00 AM70 °FPassing clouds.10 mph83%30.01 "Hg5 mi
2:30 AM70 °FPassing clouds.10 mph83%30.01 "Hg5 mi
1:30 AM70 °FPassing clouds.18 mph88%30.01 "Hg5 mi
1:00 AM70 °FPassing clouds.18 mph88%30.01 "Hg5 mi
12:30 AM70 °FPassing clouds.18 mph88%30.04 "Hg5 mi
12:00 AM70 °FPassing clouds.15 mph88%30.04 "Hg5 mi
11:30 PM
Sun, Sep 25
70 °FPassing clouds.16 mph88%30.04 "Hg5 mi
11:00 PM70 °FPassing clouds.17 mph88%30.04 "Hg5 mi
10:30 PM72 °FPassing clouds.20 mph83%30.04 "Hg5 mi
10:00 PM72 °FPassing clouds.15 mph83%30.04 "Hg5 mi
9:30 PM72 °FPassing clouds.17 mph78%30.04 "Hg5 mi
9:00 PM72 °FPassing clouds.16 mph78%30.04 "HgN/A
8:30 PM73 °FPassing clouds.12 mph69%30.04 "HgN/A
8:00 PM73 °FPassing clouds.14 mph65%30.01 "HgN/A
7:30 PM75 °FPassing clouds.13 mph61%30.01 "HgN/A
7:00 PM77 °FPassing clouds.14 mph61%30.01 "HgN/A
6:30 PM77 °FPassing clouds.16 mph65%30.01 "HgN/A
6:00 PM79 °FScattered clouds.15 mph61%30.01 "HgN/A
5:30 PM81 °FScattered clouds.16 mph58%30.01 "HgN/A
5:00 PM81 °FScattered clouds.16 mph58%30.01 "HgN/A
4:30 PM81 °FScattered clouds.16 mph58%30.01 "HgN/A
4:00 PM82 °FScattered clouds.17 mph55%30.01 "HgN/A
3:30 PM81 °FScattered clouds.21 mph58%30.01 "HgN/A
3:00 PM81 °FScattered clouds.21 mph58%30.04 "HgN/A
2:30 PM81 °FScattered clouds.21 mph58%30.04 "HgN/A
2:00 PM82 °FScattered clouds.20 mph55%30.04 "HgN/A
1:30 PM82 °FScattered clouds.17 mph55%30.04 "HgN/A
1:00 PM81 °FScattered clouds.20 mph62%30.07 "Hg5 mi
12:30 PM81 °FScattered clouds.18 mph62%30.07 "Hg5 mi
12:00 PM79 °FScattered clouds.20 mph65%30.09 "Hg5 mi
11:30 AM79 °FScattered clouds.18 mph61%30.09 "Hg5 mi
11:00 AM81 °FScattered clouds.12 mph58%30.09 "Hg5 mi
10:30 AM79 °FScattered clouds.12 mph61%30.07 "Hg5 mi
10:00 AM77 °FScattered clouds.10 mph69%30.09 "Hg5 mi
9:30 AM77 °FPartly sunny.13 mph65%30.07 "Hg5 mi
9:00 AM73 °FPartly sunny.12 mph78%30.07 "Hg5 mi
Weather by CustomWeather, © 2016

See weather overviewHow to use our weather pages